Weather History for Falls City, NE

Change the Weather History Date:

Tuesday, December 17, 2013

  Actual Average Record
Temperature  
Mean Temperature 32 °F -  
Max Temperature 44 °F 40 °F 64 °F (1976)
Min Temperature 21 °F 19 °F -11 °F (1989)
Degree Days  
Heating Degree Days 32    
Moisture  
Dew Point 21 °F    
Average Humidity 68    
Maximum Humidity 92    
Minimum Humidity 34    
Precipitation  
Precipitation 0.00 in - - ()
Sea Level Pressure  
Sea Level Pressure 30.25 in    
Wind  
Wind Speed 5 mph (West)    
Max Wind Speed 14 mph    
Max Gust Speed 20 mph    
Visibility 9 miles    
Events      
Averages and records for this station are not official NWS values.
T = Trace of Precipitation, MM = Missing Value Source: NWS Daily Summary

Daily Weather History Graph

Daily Weather History Graph

Search for Another Location

Airport:

Trip Planner

Search our weather history database for the weather conditions in past years. The results will help you decide how hot, cold, wet, or windy it might be!

Date:

Astronomy

Dec. 17, 2013 Rise Set
Actual Time 7:38 AM CST 4:58 PM CST
Civil Twilight 7:08 AM CST 5:29 PM CST
Nautical Twilight 6:34 AM CST 6:03 PM CST
Astronomical Twilight 6:01 AM CST 6:36 PM CST
Moon 5:39 PM CST (12/17) 7:35 AM CST (12/17)
Length of Visible Light 10h 20m
Length of Day
9h 19m
Full, 100% of the Moon is Illuminated
Dec 17
Full
Dec 25
Last Quarter
Jan 1
New
Jan 7
First Quarter
Jan 15
Full

Hourly Weather History & Observations

Time (CST) Temp. Windchill Dew Point Humidity Pressure Visibility Wind Dir Wind Speed Gust Speed Precip Events Conditions
12:53 AM 26.1 °F - 23.0 °F 88% 30.19 in 9.0 mi Calm Calm - N/A   Clear
1:53 AM 25.0 °F 17.1 °F 21.9 °F 88% 30.19 in 7.0 mi SW 6.9 mph - N/A   Clear
2:53 AM 26.1 °F 18.4 °F 24.1 °F 92% 30.19 in 10.0 mi SW 6.9 mph - N/A   Clear
3:53 AM 23.0 °F - 21.0 °F 92% 30.19 in 6.0 mi Calm Calm - N/A   Partly Cloudy
4:53 AM 21.9 °F - 19.9 °F 92% 30.20 in 6.0 mi Calm Calm - N/A   Clear
5:53 AM 23.0 °F - 19.0 °F 85% 30.21 in 9.0 mi Calm Calm - N/A   Partly Cloudy
6:53 AM 23.0 °F 18.4 °F 19.9 °F 88% 30.23 in 9.0 mi NW 3.5 mph - N/A   Clear
7:53 AM 21.9 °F 14.5 °F 19.9 °F 92% 30.25 in 9.0 mi NNW 5.8 mph - N/A   Clear
8:53 AM 28.9 °F 21.9 °F 25.0 °F 85% 30.28 in 10.0 mi WNW 6.9 mph - N/A   Clear
9:53 AM 33.1 °F 24.4 °F 27.0 °F 78% 30.31 in 10.0 mi NW 11.5 mph - N/A   Clear
10:53 AM 39.9 °F 35.1 °F 28.0 °F 63% 30.32 in 10.0 mi NNW 6.9 mph - N/A   Clear
11:53 AM 43.0 °F 36.4 °F 28.0 °F 56% 30.31 in 10.0 mi NNW 12.7 mph - N/A   Clear
12:53 PM 44.1 °F 38.6 °F 26.1 °F 49% 30.30 in 10.0 mi NW 10.4 mph 19.6 mph N/A   Clear
1:53 PM 44.1 °F 37.7 °F 18.0 °F 35% 30.28 in 10.0 mi NNW 12.7 mph - N/A   Clear
2:53 PM 44.1 °F 37.4 °F 17.1 °F 34% 30.29 in 10.0 mi WNW 13.8 mph - N/A   Clear
3:53 PM 43.0 °F 36.8 °F 17.1 °F 35% 30.31 in 10.0 mi WNW 11.5 mph - N/A   Clear
4:53 PM 39.0 °F 35.7 °F 17.1 °F 41% 30.30 in 10.0 mi WNW 4.6 mph - N/A   Clear
5:53 PM 37.0 °F - 17.1 °F 44% 30.28 in 10.0 mi Calm Calm - N/A   Clear
6:53 PM 32.0 °F 28.7 °F 17.1 °F 54% 30.29 in 10.0 mi SSE 3.5 mph - N/A   Clear
7:53 PM 30.9 °F 25.2 °F 17.1 °F 57% 30.28 in 10.0 mi SSW 5.8 mph - N/A   Clear
8:53 PM 28.9 °F 21.1 °F 18.0 °F 64% 30.26 in 10.0 mi SSW 8.1 mph - N/A   Clear
9:53 PM 26.1 °F 21.9 °F 18.0 °F 71% 30.25 in 10.0 mi ESE 3.5 mph - N/A   Clear
10:53 PM 26.1 °F 18.4 °F 18.0 °F 71% 30.22 in 10.0 mi South 6.9 mph - N/A   Clear
11:53 PM 28.0 °F 20.8 °F 18.0 °F 66% 30.19 in 10.0 mi South 6.9 mph - N/A   Clear